星链-4035 (STARLINK-4035 )

导读

STARLINK-4035是美国太空探索技术公司(SpaceX)星链星座的成员,于2022年5月18日发射入轨,属于星链项目第二代低轨卫星。它承担星链星座全球互联网覆盖组网任务,为全球范围用户提供高速低延迟宽带服务,这类低轨卫星也是目前全球低轨通信星座部署的重要组成部分。

Basic Information
目录编号:
52690
目录名称:
STARLINK-4035
国际标识:
2022-053AL
轨道中心:
EARTH
卫星名称:
星链-4035
卫星全名:
星链-4035 (STARLINK-4035 )
卫星状态:
在轨 (已飞行1491 天)
发射日期:
2022-05-18 UTC
国别 :
美国 (US)
星等 :
--
Orbit Information
数据来源 国际轨道数据 AOE轨道数据
星历时间 2026-06-17T10:13:32+0800
13小时前
查看轨道信息
2026-06-15T00:00:00+0800
2天前
查看轨道信息
半长轴 6917.894km 6917.9km
偏心率 0.0001476 0.0001408
轨道倾角 53.161° 53.161°
近地点辐角 91.248° 95.978°
升交点赤经 57.787° 68.694°
平近点角 268.868° 39.000°
近地点 538.735km 538.788km
远地点 540.779km 540.738km
周期 95.438分钟 95.438分钟
每日圈数 15.088356 15.088336
Detailed Information
固有亮度:
5
最大亮度:
2.5
卫星平台:
Starlink v1.5
覆盖范围:
全球
运营商:
太空探索技术公司
运营商所在国:
美国
制造商(研发单位):
太空探索技术公司
制造商所在国:
美国
使用方式:
暂无
Satellite Introduction
星链(Starlink)计划是由太空探索技术公司(SpaceX)提出的一个巨型低轨卫星互联网星座项目,计划在2019年至2024年间在太空搭建由约1.2万颗卫星组成的“星链”网络,其中1584颗将部署在地球上空550千米处的近地轨道,并从2020年开始工作。该卫星仍在工作。
2D Orbit Map
3D Orbit Map
Orbit Altitude Analysis Chart
Orbit Inclination Analysis Chart
Orbit Comprehensive Analysis Chart
View Comprehensive Chart